Time,TemperatureF,DewpointF,PressureIn,WindDirection,WindDirectionDegrees,WindSpeedMPH,WindSpeedGustMPH,Humidity,HourlyPrecipIn,Conditions,Clouds,dailyrainin,SoftwareType,DateUTC
2013-04-18 00:02:00,75.0,65.0,-100.00,SSE,160,19.0,24.0,71,-99.99,,,-99.99,,2013-04-18 05:02:00,
2013-04-18 00:12:00,75.0,65.0,-100.00,South,170,11.0,16.0,71,-99.99,,,-99.99,,2013-04-18 05:12:00,
2013-04-18 00:22:00,75.0,65.0,-100.00,South,170,11.0,16.0,71,-99.99,,,-99.99,,2013-04-18 05:22:00,
2013-04-18 00:42:00,75.0,65.0,-100.00,South,170,16.0,23.0,71,-99.99,,,-99.99,,2013-04-18 05:42:00,
2013-04-18 00:52:00,75.0,65.0,-100.00,South,180,18.0,29.0,71,-99.99,,,-99.99,,2013-04-18 05:52:00,
2013-04-18 01:02:00,75.0,65.0,-100.00,South,180,18.0,29.0,71,-99.99,,,-99.99,,2013-04-18 06:02:00,
2013-04-18 01:12:00,74.0,65.0,-100.00,South,175,12.0,16.0,73,-99.99,,,-99.99,,2013-04-18 06:12:00,
2013-04-18 01:22:00,74.0,65.0,-100.00,South,175,18.0,21.0,73,-99.99,,,-99.99,,2013-04-18 06:22:00,
2013-04-18 01:32:00,74.0,65.0,-100.00,South,175,18.0,21.0,73,-99.99,,,-99.99,,2013-04-18 06:32:00,
2013-04-18 01:42:00,73.0,65.0,-100.00,South,170,18.0,24.0,74,-99.99,,,-99.99,,2013-04-18 06:42:00,
2013-04-18 01:52:00,73.0,64.0,-100.00,South,170,17.0,21.0,74,-99.99,,,-99.99,,2013-04-18 06:52:00,
2013-04-18 02:02:00,73.0,64.0,-100.00,South,170,17.0,21.0,74,-99.99,,,-99.99,,2013-04-18 07:02:00,
2013-04-18 02:12:00,73.0,65.0,-100.00,SSE,155,18.0,21.0,76,-99.99,,,-99.99,,2013-04-18 07:12:00,
2013-04-18 02:22:00,72.0,65.0,-100.00,South,175,12.0,16.0,77,-99.99,,,-99.99,,2013-04-18 07:22:00,
2013-04-18 02:32:00,72.0,65.0,-100.00,South,175,12.0,16.0,77,-99.99,,,-99.99,,2013-04-18 07:32:00,
2013-04-18 02:42:00,72.0,65.0,-100.00,South,175,12.0,18.0,77,-99.99,,,-99.99,,2013-04-18 07:42:00,
2013-04-18 02:53:00,72.0,65.0,-100.00,South,190,16.0,21.0,77,-99.99,,,-99.99,,2013-04-18 07:53:00,
2013-04-18 03:02:00,72.0,65.0,-100.00,South,190,16.0,21.0,77,-99.99,,,-99.99,,2013-04-18 08:02:00,
2013-04-18 03:12:00,72.0,65.0,-100.00,South,185,14.0,19.0,77,-99.99,,,-99.99,,2013-04-18 08:12:00,
2013-04-18 03:22:00,73.0,65.0,-100.00,South,170,14.0,18.0,77,-99.99,,,-99.99,,2013-04-18 08:22:00,
2013-04-18 03:32:00,73.0,65.0,-100.00,South,170,14.0,18.0,77,-99.99,,,-99.99,,2013-04-18 08:32:00,
2013-04-18 03:42:00,73.0,65.0,-100.00,South,175,10.0,14.0,77,-99.99,,,-99.99,,2013-04-18 08:42:00,
2013-04-18 03:52:00,73.0,65.0,-100.00,South,180,14.0,21.0,76,-99.99,,,-99.99,,2013-04-18 08:52:00,
2013-04-18 04:02:00,73.0,65.0,-100.00,South,180,14.0,21.0,76,-99.99,,,-99.99,,2013-04-18 09:02:00,
2013-04-18 04:12:00,73.0,65.0,-100.00,SSE,160,12.0,21.0,76,-99.99,,,-99.99,,2013-04-18 09:12:00,
2013-04-18 04:22:00,74.0,65.0,-100.00,South,170,14.0,19.0,76,-99.99,,,-99.99,,2013-04-18 09:22:00,
2013-04-18 04:33:00,74.0,65.0,-100.00,South,170,14.0,19.0,76,-99.99,,,-99.99,,2013-04-18 09:33:00,
2013-04-18 04:43:00,74.0,66.0,-100.00,SSW,195,14.0,21.0,76,-99.99,,,-99.99,,2013-04-18 09:43:00,
2013-04-18 04:53:00,74.0,66.0,-100.00,South,185,14.0,18.0,75,-99.99,,,-99.99,,2013-04-18 09:53:00,
2013-04-18 05:03:00,74.0,66.0,-100.00,South,185,14.0,18.0,75,-99.99,,,-99.99,,2013-04-18 10:03:00,
2013-04-18 05:12:00,74.0,66.0,-100.00,South,180,16.0,25.0,74,-99.99,,,-99.99,,2013-04-18 10:12:00,
2013-04-18 05:23:00,74.0,65.0,-100.00,South,190,27.0,33.0,74,-99.99,,,-99.99,,2013-04-18 10:23:00,
2013-04-18 05:32:00,74.0,65.0,-100.00,South,190,27.0,33.0,74,-99.99,,,-99.99,,2013-04-18 10:32:00,
2013-04-18 05:42:00,74.0,65.0,-100.00,South,180,19.0,31.0,74,-99.99,,,-99.99,,2013-04-18 10:42:00,
2013-04-18 05:52:00,74.0,66.0,-100.00,SSE,165,18.0,24.0,75,-99.99,,,-99.99,,2013-04-18 10:52:00,
2013-04-18 06:02:00,74.0,66.0,-100.00,SSE,165,18.0,24.0,75,-99.99,,,-99.99,,2013-04-18 11:02:00,
2013-04-18 06:12:00,74.0,65.0,-100.00,SSE,160,18.0,29.0,75,-99.99,,,-99.99,,2013-04-18 11:12:00,
2013-04-18 06:22:00,73.0,65.0,-100.00,SSW,195,18.0,25.0,75,-99.99,,,-99.99,,2013-04-18 11:22:00,
2013-04-18 06:32:00,73.0,65.0,-100.00,SSW,195,18.0,25.0,75,-99.99,,,-99.99,,2013-04-18 11:32:00,
2013-04-18 06:42:00,73.0,65.0,-100.00,South,175,17.0,21.0,76,-99.99,,,-99.99,,2013-04-18 11:42:00,
2013-04-18 06:52:00,73.0,66.0,-100.00,South,185,18.0,24.0,77,-99.99,,,-99.99,,2013-04-18 11:52:00,
2013-04-18 07:02:00,73.0,66.0,-100.00,South,185,18.0,24.0,77,-99.99,,,-99.99,,2013-04-18 12:02:00,
2013-04-18 07:12:00,73.0,66.0,-100.00,SSW,195,27.0,37.0,77,-99.99,,,-99.99,,2013-04-18 12:12:00,
2013-04-18 07:22:00,73.0,66.0,-100.00,South,175,21.0,27.0,77,-99.99,,,-99.99,,2013-04-18 12:22:00,
2013-04-18 07:32:00,73.0,66.0,-100.00,South,175,21.0,27.0,77,-99.99,,,-99.99,,2013-04-18 12:32:00,
2013-04-18 07:42:00,73.0,66.0,-100.00,SSW,205,21.0,29.0,77,-99.99,,,-99.99,,2013-04-18 12:42:00,
2013-04-18 07:52:00,73.0,65.0,-100.00,South,185,21.0,31.0,77,-99.99,,,-99.99,,2013-04-18 12:52:00,
2013-04-18 08:02:00,73.0,65.0,-100.00,South,185,21.0,31.0,77,-99.99,,,-99.99,,2013-04-18 13:02:00,
2013-04-18 08:12:00,73.0,65.0,-100.00,South,185,21.0,31.0,77,-99.99,,,-99.99,,2013-04-18 13:12:00,
2013-04-18 08:22:00,73.0,65.0,-100.00,South,190,17.0,21.0,77,-99.99,,,-99.99,,2013-04-18 13:22:00,
2013-04-18 08:32:00,73.0,65.0,-100.00,South,190,17.0,21.0,77,-99.99,,,-99.99,,2013-04-18 13:32:00,
2013-04-18 08:42:00,70.0,62.0,-100.00,WNW,290,14.0,25.0,76,-99.99,,,-99.99,,2013-04-18 13:42:00,
2013-04-18 08:53:00,64.0,61.0,-100.00,West,280,14.0,18.0,92,-99.99,,,-99.99,,2013-04-18 13:53:00,
2013-04-18 09:02:00,64.0,61.0,-100.00,West,280,14.0,18.0,92,-99.99,,,-99.99,,2013-04-18 14:02:00,
2013-04-18 09:12:00,63.0,62.0,-100.00,SSW,200,4.0,6.0,94,-99.99,,,-99.99,,2013-04-18 14:12:00,
2013-04-18 09:22:00,63.0,62.0,-100.00,SW,235,1.0,2.0,95,-99.99,,,-99.99,,2013-04-18 14:22:00,
2013-04-18 09:32:00,63.0,62.0,-100.00,SW,235,1.0,2.0,95,-99.99,,,-99.99,,2013-04-18 14:32:00,
2013-04-18 09:42:00,63.0,61.0,-100.00,SSE,160,6.0,9.0,96,-99.99,,,-99.99,,2013-04-18 14:42:00,
2013-04-18 09:52:00,62.0,61.0,-100.00,SE,135,6.0,6.0,96,-99.99,,,-99.99,,2013-04-18 14:52:00,
2013-04-18 10:02:00,62.0,61.0,-100.00,SE,135,6.0,6.0,96,-99.99,,,-99.99,,2013-04-18 15:02:00,
2013-04-18 10:12:00,62.0,61.0,-100.00,South,185,6.0,8.0,97,-99.99,,,-99.99,,2013-04-18 15:12:00,
2013-04-18 10:22:00,62.0,61.0,-100.00,ESE,110,4.0,6.0,97,-99.99,,,-99.99,,2013-04-18 15:22:00,
2013-04-18 10:33:00,62.0,61.0,-100.00,ESE,110,4.0,6.0,97,-99.99,,,-99.99,,2013-04-18 15:33:00,
2013-04-18 10:42:00,62.0,61.0,-100.00,SE,125,6.0,9.0,97,-99.99,,,-99.99,,2013-04-18 15:42:00,
2013-04-18 10:53:00,62.0,61.0,-100.00,SSE,160,8.0,10.0,97,-99.99,,,-99.99,,2013-04-18 15:53:00,
2013-04-18 11:03:00,62.0,61.0,-100.00,SSE,160,8.0,10.0,97,-99.99,,,-99.99,,2013-04-18 16:03:00,
2013-04-18 11:13:00,62.0,61.0,-100.00,SE,130,9.0,9.0,97,-99.99,,,-99.99,,2013-04-18 16:13:00,
2013-04-18 11:23:00,62.0,61.0,-100.00,SE,145,4.0,8.0,97,-99.99,,,-99.99,,2013-04-18 16:23:00,
2013-04-18 11:33:00,62.0,61.0,-100.00,SE,145,4.0,8.0,97,-99.99,,,-99.99,,2013-04-18 16:33:00,
2013-04-18 11:43:00,62.0,61.0,-100.00,East,100,6.0,10.0,97,-99.99,,,-99.99,,2013-04-18 16:43:00,
2013-04-18 11:53:00,61.0,60.0,-100.00,ENE,75,4.0,6.0,97,-99.99,,,-99.99,,2013-04-18 16:53:00,
2013-04-18 12:03:00,61.0,60.0,-100.00,ENE,75,4.0,6.0,97,-99.99,,,-99.99,,2013-04-18 17:03:00,
2013-04-18 12:12:00,61.0,60.0,-100.00,NE,55,1.0,1.0,97,-99.99,,,-99.99,,2013-04-18 17:12:00,
2013-04-18 12:22:00,61.0,61.0,-100.00,NW,325,4.0,6.0,97,-99.99,,,-99.99,,2013-04-18 17:22:00,
2013-04-18 12:33:00,61.0,61.0,-100.00,NW,325,4.0,6.0,97,-99.99,,,-99.99,,2013-04-18 17:33:00,
2013-04-18 12:42:00,61.0,60.0,-100.00,East,80,9.0,10.0,97,-99.99,,,-99.99,,2013-04-18 17:42:00,
2013-04-18 12:52:00,61.0,61.0,-100.00,West,265,4.0,6.0,97,-99.99,,,-99.99,,2013-04-18 17:52:00,
2013-04-18 13:02:00,61.0,61.0,-100.00,West,265,4.0,6.0,97,-99.99,,,-99.99,,2013-04-18 18:02:00,
2013-04-18 13:12:00,62.0,61.0,-100.00,South,180,9.0,14.0,97,-99.99,,,-99.99,,2013-04-18 18:12:00,
2013-04-18 13:23:00,62.0,61.0,-100.00,South,170,8.0,11.0,97,-99.99,,,-99.99,,2013-04-18 18:23:00,
2013-04-18 13:32:00,62.0,61.0,-100.00,South,170,8.0,11.0,97,-99.99,,,-99.99,,2013-04-18 18:32:00,
2013-04-18 13:42:00,62.0,61.0,-100.00,WSW,245,9.0,12.0,97,-99.99,,,-99.99,,2013-04-18 18:42:00,
2013-04-18 13:52:00,62.0,61.0,-100.00,SSE,165,6.0,9.0,97,-99.99,,,-99.99,,2013-04-18 18:52:00,
2013-04-18 14:02:00,62.0,61.0,-100.00,SSE,165,6.0,9.0,97,-99.99,,,-99.99,,2013-04-18 19:02:00,
2013-04-18 14:12:00,63.0,62.0,-100.00,South,190,9.0,10.0,97,-99.99,,,-99.99,,2013-04-18 19:12:00,
2013-04-18 14:22:00,63.0,62.0,-100.00,South,180,10.0,12.0,97,-99.99,,,-99.99,,2013-04-18 19:22:00,
2013-04-18 14:32:00,63.0,62.0,-100.00,South,180,10.0,12.0,97,-99.99,,,-99.99,,2013-04-18 19:32:00,
2013-04-18 14:42:00,63.0,62.0,-100.00,South,170,6.0,8.0,97,-99.99,,,-99.99,,2013-04-18 19:42:00,
2013-04-18 14:53:00,63.0,62.0,-100.00,SSE,150,6.0,9.0,97,-99.99,,,-99.99,,2013-04-18 19:53:00,
2013-04-18 15:02:00,63.0,62.0,-100.00,SSE,150,6.0,9.0,97,-99.99,,,-99.99,,2013-04-18 20:02:00,
2013-04-18 15:12:00,62.0,62.0,-100.00,SSE,165,9.0,10.0,97,-99.99,,,-99.99,,2013-04-18 20:12:00,
2013-04-18 15:22:00,63.0,62.0,-100.00,SSE,160,9.0,10.0,97,-99.99,,,-99.99,,2013-04-18 20:22:00,
2013-04-18 15:32:00,63.0,62.0,-100.00,SSE,160,9.0,10.0,97,-99.99,,,-99.99,,2013-04-18 20:32:00,
2013-04-18 15:42:00,63.0,62.0,-100.00,SSE,155,10.0,14.0,97,-99.99,,,-99.99,,2013-04-18 20:42:00,
2013-04-18 15:52:00,63.0,62.0,-100.00,SSE,165,6.0,10.0,97,-99.99,,,-99.99,,2013-04-18 20:52:00,
2013-04-18 16:02:00,63.0,62.0,-100.00,SSE,165,6.0,10.0,97,-99.99,,,-99.99,,2013-04-18 21:02:00,
2013-04-18 16:12:00,63.0,62.0,-100.00,SSE,155,12.0,16.0,97,-99.99,,,-99.99,,2013-04-18 21:12:00,
2013-04-18 16:22:00,63.0,62.0,-100.00,SSE,155,10.0,14.0,97,-99.99,,,-99.99,,2013-04-18 21:22:00,
2013-04-18 16:32:00,63.0,62.0,-100.00,SSE,155,10.0,14.0,97,-99.99,,,-99.99,,2013-04-18 21:32:00,
2013-04-18 16:43:00,63.0,62.0,-100.00,SSE,155,10.0,14.0,97,-99.99,,,-99.99,,2013-04-18 21:43:00,
2013-04-18 16:53:00,63.0,62.0,-100.00,SSE,165,10.0,14.0,97,-99.99,,,-99.99,,2013-04-18 21:53:00,
2013-04-18 17:02:00,63.0,62.0,-100.00,SSE,165,10.0,14.0,97,-99.99,,,-99.99,,2013-04-18 22:02:00,
2013-04-18 17:13:00,63.0,62.0,-100.00,SSE,160,10.0,14.0,97,-99.99,,,-99.99,,2013-04-18 22:13:00,
2013-04-18 17:23:00,63.0,62.0,-100.00,SSE,150,8.0,12.0,97,-99.99,,,-99.99,,2013-04-18 22:23:00,
2013-04-18 17:32:00,63.0,62.0,-100.00,SSE,150,8.0,12.0,97,-99.99,,,-99.99,,2013-04-18 22:32:00,
2013-04-18 17:42:00,63.0,62.0,-100.00,SSE,150,9.0,14.0,97,-99.99,,,-99.99,,2013-04-18 22:42:00,
2013-04-18 17:52:00,57.0,56.0,-100.00,West,275,14.0,27.0,97,-99.99,,,-99.99,,2013-04-18 22:52:00,
2013-04-18 18:04:00,57.0,56.0,-100.00,West,275,14.0,27.0,97,-99.99,,,-99.99,,2013-04-18 23:04:00,
2013-04-18 18:12:00,54.0,53.0,-100.00,WSW,240,16.0,23.0,97,-99.99,,,-99.99,,2013-04-18 23:12:00,
2013-04-18 18:21:00,52.0,51.0,-100.00,West,265,21.0,32.0,97,-99.99,,,-99.99,,2013-04-18 23:21:00,
2013-04-18 18:32:00,52.0,51.0,-100.00,West,265,21.0,32.0,97,-99.99,,,-99.99,,2013-04-18 23:32:00,
2013-04-18 18:42:00,50.0,49.0,-100.00,West,265,18.0,25.0,97,-99.99,,,-99.99,,2013-04-18 23:42:00,
2013-04-18 18:52:00,50.0,49.0,-100.00,West,265,11.0,21.0,97,-99.99,,,-99.99,,2013-04-18 23:52:00,
2013-04-18 19:01:00,50.0,49.0,-100.00,West,265,11.0,21.0,97,-99.99,,,-99.99,,2013-04-19 00:01:00,
2013-04-18 19:12:00,49.0,48.0,-100.00,West,275,10.0,14.0,97,-99.99,,,-99.99,,2013-04-19 00:12:00,
2013-04-18 19:22:00,49.0,48.0,-100.00,West,265,18.0,25.0,97,-99.99,,,-99.99,,2013-04-19 00:22:00,
2013-04-18 19:32:00,49.0,48.0,-100.00,West,265,18.0,25.0,97,-99.99,,,-99.99,,2013-04-19 00:32:00,
2013-04-18 19:42:00,49.0,48.0,-100.00,West,265,18.0,25.0,97,-99.99,,,-99.99,,2013-04-19 00:42:00,
2013-04-18 19:52:00,47.0,46.0,-100.00,West,280,14.0,21.0,97,-99.99,,,-99.99,,2013-04-19 00:52:00,
2013-04-18 20:01:00,47.0,46.0,-100.00,West,280,14.0,21.0,97,-99.99,,,-99.99,,2013-04-19 01:01:00,
2013-04-18 20:11:00,46.0,45.0,-100.00,West,265,12.0,18.0,97,-99.99,,,-99.99,,2013-04-19 01:11:00,
2013-04-18 20:21:00,46.0,45.0,-100.00,West,270,6.0,9.0,97,-99.99,,,-99.99,,2013-04-19 01:21:00,
2013-04-18 20:32:00,46.0,45.0,-100.00,West,270,6.0,9.0,97,-99.99,,,-99.99,,2013-04-19 01:32:00,
2013-04-18 20:42:00,46.0,45.0,-100.00,West,270,6.0,10.0,97,-99.99,,,-99.99,,2013-04-19 01:42:00,
2013-04-18 20:52:00,45.0,44.0,-100.00,West,275,10.0,18.0,97,-99.99,,,-99.99,,2013-04-19 01:52:00,
2013-04-18 21:02:00,45.0,44.0,-100.00,West,275,10.0,18.0,97,-99.99,,,-99.99,,2013-04-19 02:02:00,
2013-04-18 21:11:00,45.0,44.0,-100.00,WNW,295,11.0,14.0,97,-99.99,,,-99.99,,2013-04-19 02:11:00,
2013-04-18 21:21:00,45.0,44.0,-100.00,West,275,6.0,10.0,97,-99.99,,,-99.99,,2013-04-19 02:21:00,
2013-04-18 21:32:00,45.0,44.0,-100.00,West,275,6.0,10.0,97,-99.99,,,-99.99,,2013-04-19 02:32:00,
2013-04-18 21:42:00,45.0,44.0,-100.00,West,265,12.0,17.0,97,-99.99,,,-99.99,,2013-04-19 02:42:00,
2013-04-18 21:52:00,44.0,44.0,-100.00,West,280,10.0,14.0,97,-99.99,,,-99.99,,2013-04-19 02:52:00,
2013-04-18 22:01:00,44.0,44.0,-100.00,West,280,10.0,14.0,97,-99.99,,,-99.99,,2013-04-19 03:01:00,
2013-04-18 22:11:00,44.0,44.0,-100.00,West,265,10.0,12.0,97,-99.99,,,-99.99,,2013-04-19 03:11:00,
2013-04-18 22:21:00,44.0,43.0,-100.00,West,265,10.0,16.0,96,-99.99,,,-99.99,,2013-04-19 03:21:00,
2013-04-18 22:33:00,44.0,43.0,-100.00,West,265,10.0,16.0,96,-99.99,,,-99.99,,2013-04-19 03:33:00,
2013-04-18 22:43:00,45.0,42.0,-100.00,West,275,6.0,9.0,92,-99.99,,,-99.99,,2013-04-19 03:43:00,
2013-04-18 22:53:00,44.0,40.0,-100.00,West,280,9.0,14.0,84,-99.99,,,-99.99,,2013-04-19 03:53:00,
2013-04-18 23:03:00,44.0,40.0,-100.00,West,280,9.0,14.0,84,-99.99,,,-99.99,,2013-04-19 04:03:00,
2013-04-18 23:13:00,44.0,38.0,-100.00,West,280,12.0,18.0,78,-99.99,,,-99.99,,2013-04-19 04:13:00,
2013-04-18 23:23:00,44.0,37.0,-100.00,West,280,9.0,12.0,76,-99.99,,,-99.99,,2013-04-19 04:23:00,
2013-04-18 23:30:00,43.0,33.0,-100.00,WNW,300,6.0,9.0,68,-99.99,,,-99.99,,2013-04-19 04:30:00,
2013-04-18 23:33:00,44.0,37.0,-100.00,West,280,9.0,12.0,76,-99.99,,,-99.99,,2013-04-19 04:33:00,
2013-04-18 23:43:00,43.0,34.0,-100.00,West,270,14.0,21.0,69,-99.99,,,-99.99,,2013-04-19 04:43:00,
2013-04-18 23:52:00,43.0,33.0,-100.00,West,260,14.0,18.0,68,-99.99,,,-99.99,,2013-04-19 04:52:00,